Wind_Speed
5 6 7 8 9 9 10 10 9 9 9 8 8 7 6 4 3 2 3 5 7 9 11 13 15 16 17 19 19 19 18 17 17 16 15 13 12 11 11 10 10 9 9
2 3 4 5 6 7 8 8 8 8 8 7 7 7 6 5 4 2 1 2 4 6 8 10 12 13 15 16 17 18 18 18 18 18 17 16 14 13 13 11 10 9 8
1 1 1 2 3 4 5 5 6 6 6 6 6 6 5 5 4 3 2 1 2 4 5 7 8 10 12 13 14 15 16 17 17 17 17 16 15 13 13 11 9 8 7
3 3 3 2 1 1 2 2 3 4 4 4 4 5 5 4 4 3 3 2 0 1 3 4 5 6 8 9 9 10 12 14 14 14 13 13 13 12 10 9 7 6 5
4 4 5 5 4 3 3 2 2 1 1 2 2 2 3 3 3 3 3 2 1 1 1 2 3 4 5 5 5 6 7 9 10 9 9 8 8 7 7 6 5 4 4
5 6 6 7 7 7 7 6 5 4 3 2 2 1 0 1 1 2 2 2 2 2 2 1 1 2 3 3 3 4 5 5 6 6 5 5 4 4 4 4 3 2 2
6 7 8 9 9 10 10 10 9 8 7 6 6 5 4 3 2 1 0 0 1 2 2 2 1 1 1 1 2 3 4 4 4 4 4 3 3 2 2 2 2 2 2
8 8 9 10 11 12 13 13 13 13 12 11 10 9 8 7 6 5 4 3 2 1 1 1 1 1 0 1 2 3 4 4 3 4 4 3 3 3 3 2 2 2 2
10 10 11 12 13 14 15 16 16 16 15 15 14 13 12 11 10 9 8 7 5 4 3 2 1 0 0 1 1 2 3 4 4 4 4 4 4 4 3 3 3 4 4
13 14 15 15 16 17 18 19 19 19 19 18 17 16 15 14 14 13 12 11 9 8 7 5 4 2 1 1 1 2 3 4 4 4 4 4 4 4 4 3 4 4 5
16 17 18 19 19 19 20 20 21 22 22 22 20 20 19 18 17 16 15 14 13 12 11 9 8 6 4 3 3 3 3 4 4 4 4 4 4 4 4 3 3 4 5
21 21 21 22 22 22 22 21 22 23 23 23 23 23 22 22 21 20 19 18 17 15 14 13 12 10 9 7 5 5 5 5 4 4 5 4 4 4 4 3 3 3 4
27 27 27 26 26 26 26 25 24 25 25 24 24 25 26 26 25 24 23 22 21 20 19 17 16 14 13 11 9 8 8 7 6 5 6 6 5 4 4 3 3 3 3
33 33 33 33 32 31 31 30 29 28 28 27 27 28 27 27 28 27 27 27 25 24 23 22 20 19 17 15 13 12 11 11 10 8 8 8 7 6 5 4 4 3 3
36 37 38 38 38 37 36 35 34 33 32 31 29 30 28 29 29 30 29 28 28 28 27 25 24 22 21 19 17 15 15 14 14 12 11 10 9 9 7 6 6 5 4
37 38 39 40 40 40 40 40 39 38 37 35 34 31 31 31 30 30 31 30 29 29 29 28 27 25 24 23 21 19 19 17 17 16 15 14 12 11 10 9 8 7 6
36 37 38 38 39 40 41 42 42 42 41 40 39 38 36 35 33 33 32 32 31 30 29 30 29 28 27 26 24 23 21 20 20 20 19 18 16 14 13 12 11 10 9
35 36 36 37 37 38 38 39 39 40 40 40 40 40 40 40 39 38 35 34 34 34 34 33 31 30 30 28 27 25 24 23 24 24 23 21 19 18 16 15 14 13 12
33 34 35 35 36 36 36 37 38 38 39 39 39 39 40 40 41 40 40 38 36 35 35 35 34 32 31 30 29 28 28 27 28 27 26 24 22 21 20 18 17 15 14
29 30 31 33 34 34 35 36 37 38 38 38 38 38 39 39 40 41 41 40 39 37 36 36 34 33 32 32 31 30 29 30 30 29 28 26 25 23 22 21 20 19 17
27 27 28 29 30 31 33 33 34 36 37 37 38 38 38 38 38 39 40 40 40 39 37 37 35 33 32 32 32 31 30 31 31 31 30 28 27 26 24 23 23 21 20
25 25 25 24 25 26 27 29 31 33 35 37 38 38 38 38 38 38 40 40 40 40 40 38 37 35 33 31 31 32 32 31 32 32 31 30 30 28 27 25 24 24 23
22 21 21 21 22 23 25 26 28 30 32 34 36 37 38 38 38 37 38 40 40 41 40 39 39 37 35 34 32 32 32 32 33 32 32 31 30 30 29 28 27 26 25
18 18 18 18 19 20 22 23 25 27 28 30 32 34 36 36 37 37 38 39 40 41 41 40 40 40 38 36 34 33 33 33 34 34 33 32 31 30 29 29 29 28 27
17 17 16 16 16 17 18 19 20 21 22 24 27 29 32 33 35 35 37 38 39 41 41 41 41 41 39 38 37 36 35 34 35 36 35 34 32 31 29 29 29 29 28
18 18 17 17 17 16 16 15 15 16 17 19 21 23 25 28 30 32 34 36 38 39 41 42 42 41 40 40 39 38 36 35 35 37 37 37 35 33 30 29 28 28 27
Wind_Direction
85 83 80 80 77 74 70 68 68 69 68 69 72 77 81 87 103 142 193 210 220 225 226 226 227 231 233 235 237 239 242 246 248 252 254 259 266 274 278 282 289 291 299
89 91 87 87 84 81 77 72 70 71 72 72 72 74 76 79 84 95 150 209 221 226 228 227 230 233 234 236 237 239 241 246 249 252 253 256 262 269 273 277 282 285 289
257 210 125 106 97 91 87 81 76 73 74 74 74 75 76 76 75 75 78 142 215 223 227 229 232 235 235 236 238 239 241 245 248 250 251 254 259 264 269 273 275 278 280
271 266 252 236 197 150 123 104 92 85 81 78 77 77 76 75 74 72 68 69 114 227 232 236 238 235 233 235 240 239 239 241 244 245 249 252 258 260 262 265 264 268 267
272 268 266 261 254 243 233 221 200 165 126 102 91 82 74 71 72 71 68 65 55 21 302 255 243 235 230 234 237 232 229 231 231 234 238 245 248 251 254 255 256 256 249
272 268 266 264 261 256 251 246 241 238 236 234 230 222 243 36 56 66 64 57 44 24 9 352 280 248 235 229 219 209 206 204 209 211 216 220 224 231 235 233 230 232 217
282 275 270 266 262 259 256 252 250 249 249 250 252 251 251 258 264 265 272 355 39 44 32 17 2 325 233 195 187 187 182 185 187 177 180 188 185 179 181 183 179 173 158
284 277 269 265 261 259 257 256 255 254 253 254 256 256 254 253 254 257 256 254 254 270 360 15 20 28 75 170 172 172 177 182 180 167 161 163 161 150 153 150 139 130 129
284 277 270 263 258 255 255 254 254 254 254 254 254 256 256 256 254 254 253 251 250 250 252 258 294 357 49 174 175 170 176 180 170 163 158 158 150 148 148 140 125 118 122
278 275 271 267 261 257 254 253 251 251 251 252 253 254 255 257 256 254 253 250 249 250 249 246 245 245 228 206 195 187 187 189 173 163 162 159 158 158 152 141 127 119 117
271 270 269 268 264 262 260 256 254 253 252 250 251 252 254 255 256 255 254 252 249 248 247 245 243 241 236 225 214 207 207 209 189 181 177 174 173 170 160 147 133 119 116
271 267 265 264 263 262 262 262 259 258 256 253 249 249 251 253 254 255 254 253 251 248 245 243 242 241 238 233 226 222 223 229 219 205 195 191 190 186 176 163 144 130 125
271 268 266 264 261 260 260 260 261 261 259 257 255 254 252 251 252 254 252 252 252 248 245 243 241 241 239 236 233 230 231 235 235 224 217 212 211 208 201 193 178 155 138
268 267 264 262 261 259 258 257 258 259 261 261 259 257 255 253 251 252 251 250 250 248 246 243 240 239 238 237 235 234 236 239 240 235 230 227 227 228 224 219 211 195 173
269 267 265 263 261 260 259 258 257 257 259 259 261 261 258 256 254 253 253 254 251 249 247 244 240 238 238 236 235 233 235 238 240 240 237 235 235 236 235 233 231 228 221
271 268 266 265 264 262 261 260 259 258 257 257 259 261 260 260 258 257 253 254 252 249 247 244 240 239 238 237 236 234 234 237 242 244 243 240 239 239 239 240 241 241 241
274 272 270 269 268 267 265 264 263 262 260 258 258 259 260 261 261 260 257 254 252 250 249 246 243 239 238 237 235 234 234 237 243 246 245 243 241 241 242 242 244 246 248
276 274 273 272 270 269 268 267 266 265 263 261 259 258 258 259 260 261 260 257 255 253 252 250 248 244 239 236 235 234 234 236 240 244 245 244 242 241 242 243 245 247 250
279 277 275 274 273 272 271 269 268 267 265 263 260 258 257 257 258 258 259 258 257 256 255 254 250 247 243 239 236 233 232 233 236 240 242 243 242 242 242 243 245 247 249
284 281 278 276 273 272 271 270 269 268 266 265 263 260 259 258 257 257 257 257 256 256 256 255 252 249 246 241 238 235 233 232 233 236 239 242 242 241 240 242 244 246 248
291 288 285 281 277 274 272 271 269 268 267 266 264 263 261 258 256 255 255 254 254 254 254 254 252 250 246 243 240 239 237 233 232 232 235 238 240 241 241 241 243 245 247
299 295 291 286 282 278 276 274 272 270 268 266 265 263 262 259 257 255 253 253 252 251 250 251 249 249 247 246 243 241 241 236 233 233 233 235 238 240 241 242 243 245 246
310 306 301 295 290 286 283 280 277 274 272 268 265 263 262 260 258 255 252 250 250 248 247 246 246 244 245 245 244 240 240 238 234 233 232 232 234 238 240 242 242 243 244
329 323 315 309 302 297 292 287 283 280 276 271 268 265 263 261 257 255 252 249 248 247 245 244 242 242 242 242 242 242 240 237 233 231 233 233 233 233 236 239 241 242 243
346 342 337 331 324 316 308 301 295 289 283 276 272 267 263 260 257 254 252 248 246 245 243 241 239 239 238 238 239 240 237 234 232 230 231 232 231 231 232 236 239 240 242
0 358 355 349 343 337 328 320 314 305 297 288 279 272 267 261 256 253 251 248 245 243 240 238 236 235 235 235 236 236 235 234 232 230 230 230 229 228 228 231 234 236 239
Height
5919 5918 5917 5916 5915 5914 5913 5913 5912 5912 5912 5912 5911 5911 5911 5911 5911 5910 5910 5910 5910 5910 5910 5910 5910 5910 5910 5910 5910 5911 5911 5911 5912 5912 5912 5912 5912 5912 5911 5911 5910 5910 5909
5920 5919 5918 5917 5916 5916 5915 5915 5914 5914 5913 5913 5913 5912 5912 5912 5911 5911 5911 5910 5910 5910 5909 5909 5909 5908 5908 5908 5908 5909 5909 5909 5910 5910 5910 5911 5911 5910 5910 5910 5910 5909 5909
5920 5920 5919 5918 5918 5917 5916 5916 5915 5915 5915 5914 5914 5913 5913 5913 5912 5912 5911 5911 5910 5910 5909 5908 5908 5907 5907 5907 5906 5907 5907 5907 5908 5908 5908 5909 5909 5909 5909 5908 5908 5908 5907
5920 5920 5919 5919 5918 5918 5917 5917 5916 5916 5915 5915 5915 5914 5914 5913 5913 5912 5912 5911 5910 5910 5909 5908 5907 5906 5906 5905 5905 5905 5905 5905 5906 5906 5906 5907 5907 5907 5907 5907 5907 5907 5906
5919 5919 5919 5919 5918 5918 5918 5917 5917 5916 5916 5915 5915 5915 5914 5914 5913 5913 5912 5911 5911 5910 5909 5908 5907 5906 5905 5905 5904 5904 5904 5904 5904 5905 5905 5905 5906 5906 5906 5906 5906 5906 5906
5918 5918 5918 5918 5918 5917 5917 5917 5916 5916 5915 5915 5915 5914 5914 5914 5913 5913 5912 5912 5911 5910 5909 5908 5907 5906 5905 5905 5904 5904 5904 5904 5904 5904 5904 5905 5905 5905 5905 5905 5905 5905 5905
5917 5917 5916 5916 5916 5916 5916 5916 5916 5915 5915 5914 5914 5914 5913 5913 5913 5913 5912 5912 5911 5910 5909 5909 5908 5907 5906 5905 5904 5904 5904 5904 5904 5904 5904 5904 5905 5905 5905 5905 5905 5905 5905
5915 5914 5914 5914 5913 5913 5913 5913 5913 5913 5913 5913 5913 5912 5912 5912 5912 5912 5912 5911 5911 5910 5910 5909 5908 5907 5906 5905 5905 5904 5904 5904 5904 5904 5904 5905 5905 5905 5905 5905 5905 5905 5905
5912 5912 5911 5910 5910 5910 5910 5910 5910 5910 5910 5910 5910 5910 5910 5910 5910 5910 5910 5910 5910 5910 5909 5909 5908 5907 5906 5906 5905 5905 5905 5904 5904 5905 5905 5905 5905 5905 5906 5906 5905 5905 5905
5909 5908 5907 5907 5906 5906 5905 5905 5905 5905 5905 5906 5906 5906 5907 5907 5907 5907 5908 5908 5908 5908 5908 5908 5908 5907 5907 5906 5905 5905 5905 5905 5905 5905 5905 5905 5905 5906 5906 5906 5906 5906 5906
5906 5905 5903 5902 5902 5901 5901 5900 5900 5900 5900 5901 5901 5902 5903 5903 5904 5904 5904 5905 5906 5906 5907 5907 5907 5907 5906 5906 5905 5905 5905 5905 5905 5905 5905 5906 5906 5906 5906 5907 5907 5907 5907
5902 5900 5899 5898 5897 5896 5895 5895 5895 5895 5895 5896 5897 5897 5898 5899 5899 5900 5900 5901 5902 5903 5904 5904 5905 5905 5905 5905 5905 5905 5905 5905 5905 5905 5906 5906 5906 5906 5907 5907 5907 5907 5907
5895 5894 5893 5892 5891 5891 5890 5889 5890 5890 5890 5890 5891 5892 5893 5894 5894 5895 5896 5897 5898 5899 5900 5901 5902 5902 5903 5904 5904 5904 5904 5904 5904 5905 5905 5906 5906 5906 5907 5907 5907 5907 5908
5888 5886 5885 5884 5884 5884 5884 5884 5884 5884 5884 5884 5885 5886 5887 5888 5889 5889 5890 5891 5892 5893 5895 5896 5897 5899 5900 5901 5902 5902 5903 5903 5903 5904 5905 5905 5905 5906 5906 5907 5907 5907 5908
5879 5877 5876 5875 5875 5875 5875 5876 5877 5877 5878 5878 5879 5879 5880 5881 5882 5883 5883 5885 5886 5887 5889 5890 5892 5894 5896 5897 5898 5899 5900 5901 5901 5902 5903 5904 5904 5905 5905 5906 5906 5907 5907
5868 5867 5866 5865 5865 5865 5865 5866 5867 5869 5870 5871 5871 5872 5873 5874 5875 5876 5877 5878 5879 5880 5882 5884 5886 5888 5890 5892 5894 5895 5897 5897 5898 5899 5900 5902 5902 5903 5904 5905 5905 5906 5906
5859 5857 5856 5856 5855 5855 5855 5856 5857 5858 5860 5861 5863 5864 5865 5866 5867 5869 5870 5871 5872 5874 5875 5877 5879 5882 5884 5886 5888 5890 5892 5893 5894 5896 5897 5898 5900 5901 5902 5902 5903 5904 5905
5850 5848 5847 5846 5846 5845 5845 5845 5846 5847 5848 5850 5852 5854 5856 5857 5858 5860 5862 5864 5865 5867 5869 5870 5872 5874 5876 5879 5882 5885 5887 5889 5890 5891 5893 5894 5896 5897 5898 5900 5901 5902 5902
5841 5839 5838 5837 5836 5836 5836 5835 5835 5836 5837 5838 5840 5843 5845 5847 5849 5851 5853 5855 5858 5860 5861 5863 5864 5867 5869 5872 5875 5878 5881 5883 5885 5886 5888 5890 5891 5893 5895 5896 5897 5899 5900
5833 5831 5830 5828 5827 5826 5826 5826 5826 5826 5826 5827 5829 5831 5833 5836 5838 5840 5843 5845 5848 5851 5853 5855 5857 5859 5861 5864 5868 5871 5874 5877 5880 5881 5883 5884 5886 5888 5890 5892 5893 5895 5896
5826 5824 5822 5820 5818 5817 5817 5816 5816 5816 5816 5816 5817 5819 5822 5824 5826 5829 5832 5834 5837 5841 5844 5846 5849 5851 5854 5857 5860 5863 5866 5870 5873 5875 5877 5879 5881 5883 5885 5887 5889 5890 5892
5819 5816 5814 5812 5810 5809 5808 5807 5806 5806 5806 5806 5806 5808 5810 5812 5815 5818 5821 5824 5826 5830 5834 5837 5840 5843 5846 5849 5852 5855 5858 5862 5865 5868 5871 5873 5875 5877 5879 5881 5883 5885 5887
5813 5810 5808 5805 5804 5802 5800 5799 5798 5797 5796 5796 5796 5797 5798 5801 5803 5806 5809 5812 5815 5819 5823 5827 5830 5834 5837 5841 5844 5848 5851 5854 5858 5861 5864 5867 5869 5871 5873 5875 5878 5880 5882
5810 5806 5803 5800 5798 5796 5794 5792 5790 5788 5787 5786 5786 5786 5787 5789 5791 5794 5797 5801 5804 5807 5811 5816 5820 5824 5828 5832 5835 5840 5844 5847 5850 5854 5857 5860 5863 5865 5867 5869 5872 5874 5876
5808 5804 5800 5797 5794 5791 5788 5786 5783 5781 5780 5778 5777 5777 5777 5778 5780 5783 5785 5788 5792 5796 5800 5804 5809 5814 5818 5823 5827 5831 5834 5838 5842 5846 5849 5852 5856 5858 5861 5863 5865 5868 5870
5807 5803 5799 5795 5791 5788 5784 5781 5779 5776 5774 5772 5770 5769 5769 5769 5770 5772 5774 5777 5780 5784 5788 5793 5798 5803 5808 5813 5817 5822 5825 5829 5833 5837 5841 5844 5848 5851 5854 5857 5859 5861 5863